Castle Airport
KMER : now visible

Airfield :











YOU CAN JOIN US ON...

 
LOGIN :

Register | Disclaimer

   EN    FR    IT 

 









Legend :    VFR   Marginal VFR   IFR   Intensive IFR   Very Intensive IFR
Visi :
Ceiling :
>= 8 km
>= 3000ft
5 to 8 km
1000 to 3000 ft
1500m to 5 km
500 to 1000 ft
800 to 1500m
200 to 500 ft
< 800m
< 200 ft
Symbols :   Thunderstorms  Fog  Heavy snow  Heavy precipitations  Wind > 20 kt






- Airport Elevation : 191 ft


KMER - Castle

METAR N/A
TAF KMER
Valid from the 19 at 06:00 until the 20 at 06:00 UTC


190539Z 1906/2006 00000KT P6SM SKC
FM190900 34011KT 5SM HZ SKC
FM191200 34015G24KT 4SM HZ SKC
FM191800 33016G22KT P6SM SKC
FM192100 16009G19KT P6SM SKC
FM200000 32005KT 6SM HZ SKC AMD NOT SKED
KZOA FIR / North America



MET'MAP, your aeronautical weather chart ! - Copyright ORBIFLY December 2007 - Disclaimer

ORBIFLY MET'MAP TEAM :

Programming & Development : Alexandra Zaïnal
Concept & original design : Baudouin d'Aumeries
Assistance for programming : Marc-Olivier Méhu
Technical & hardware support : Manuel Goepfert

Contact : metmap@orbifly.com




SOURCES & CREDITS :

   NOAA       Earth
Advisory